Location: Newark
(51.3000°N, 178.2000°W)
Time: 02:37:13
(UTC+00:00)

ISS - Pass Details

Date: 14 May 2021
Orbit: 417 x 422 km, 51.6° (Epoch: 15 June)

Event Time Altitude Azimuth Distance (km) Brightness Sun altitude
Exits shadow 11:40:43 79° 268° (W) 434 -3.8 -19.9°
Maximum altitude 11:40:54 89° 349° (N) 427 -3.9 -19.9°
Drops below altitude 10° 11:44:18 10° 82° (E) 1,509 -0.9 -19.9°
Sets 11:46:24 0° 83° (E) 2,375 0.2 -19.9°
